Location: Ajisawe
(8.4333°N, 4.3833°E)
Time: 14:50:38
(UTC+00:00)

Vanguard 3 - All Passes

Search period start: 23 April 2021 00:00
Search period end: 03 May 2021 00:00
Orbit: 508 x 3262 km, 33.3° (Epoch: 23 April)

Date Brightness Start Highest point End Pass type
(mag) Time Alt. Az. Time Alt. Az. Time Alt. Az.
23 Apr - 00:11:56 10° NW 00:13:07 10° NNW 00:14:14 10° NNW night (unlit)
23 Apr - 06:49:09 10° NW 06:53:45 66° NE 07:01:30 10° ESE daylight
23 Apr - 09:00:58 10° W 09:06:52 29° SSW 09:16:12 10° SSE daylight
23 Apr - 11:21:21 10° SSW 11:23:45 11° SSW 11:26:22 10° S daylight
23 Apr - 16:01:33 10° S 16:10:11 14° SSE 16:18:11 10° SE daylight
23 Apr - 18:13:55 10° SSW 18:29:53 35° SSE 18:40:52 10° E visible
23 Apr - 20:30:03 10° SW 20:45:46 87° SE 20:54:22 10° ENE visible
23 Apr - 22:50:25 10° W 22:58:39 26° NW 23:04:01 10° NNE visible
24 Apr - 05:36:40 10° NNW 05:40:04 25° NE 05:44:37 10° E daylight
24 Apr - 07:46:41 10° WNW 07:51:47 46° SSW 08:00:25 10° SE daylight
24 Apr - 10:02:04 10° SW 10:06:44 15° SSW 10:12:42 10° S daylight
24 Apr - 16:57:53 10° SSW 17:12:15 25° SSE 17:23:46 10° ESE daylight
24 Apr - 19:12:27 10° SW 19:29:52 60° SSE 19:40:18 10° ENE visible
24 Apr - 21:30:56 10° WSW 21:44:05 50° NW 21:51:31 10° NE visible
24 Apr - 23:56:09 10° NW 23:56:58 10° NNW 23:57:46 10° NNW night (unlit)
25 Apr - 06:33:13 10° NW 06:37:32 86° NE 06:44:32 10° ESE daylight
25 Apr - 08:45:53 10° WSW 08:50:47 21° SSW 08:57:51 10° SSE daylight
25 Apr - 15:42:55 10° S 15:53:43 17° SSE 16:03:44 10° ESE daylight
25 Apr - 17:55:34 10° SSW 18:13:02 42° SSE 18:25:06 10° E visible
25 Apr - 20:12:13 10° WSW 20:28:56 82° NW 20:38:16 10° NE visible
25 Apr - 22:33:40 10° W 22:42:12 24° NW 22:47:53 10° NNE visible
26 Apr - 05:20:25 10° NNW 05:23:52 31° NE 05:28:24 10° E daylight
26 Apr - 07:31:10 10° W 07:35:42 33° SSW 07:42:47 10° SSE daylight
26 Apr - 14:31:48 10° SSE 14:34:22 10° SSE 14:36:57 10° SSE daylight
26 Apr - 16:39:33 10° SSW 16:55:24 29° SSE 17:08:16 10° E daylight
26 Apr - 18:54:20 10° SW 19:12:53 69° SE 19:24:14 10° ENE visible
26 Apr - 21:13:36 10° WSW 21:27:20 45° NW 21:35:21 10° NE visible
26 Apr - 23:39:50 10° NW 23:40:51 10° NNW 23:41:49 10° NNW visible
27 Apr - 04:09:12 10° NNE 04:10:01 11° NNE 04:10:51 10° NE visible
27 Apr - 06:17:21 10° WNW 06:21:24 68° SSW 06:27:36 10° SE daylight
27 Apr - 08:31:21 10° SW 08:34:47 14° SSW 08:39:08 10° S daylight
27 Apr - 15:24:38 10° SSW 15:37:04 20° SSE 15:48:45 10° ESE daylight
27 Apr - 17:37:23 10° SW 17:55:58 49° SSE 18:09:08 10° ENE daylight
27 Apr - 19:54:27 10° WSW 20:11:57 73° NW 20:22:05 10° NE visible
27 Apr - 22:16:55 10° W 22:25:45 23° NNW 22:31:45 10° NNE visible
28 Apr - 05:04:12 10° NW 05:07:43 41° NE 05:12:11 10° ESE visible
28 Apr - 07:15:52 10° W 07:19:41 23° SSW 07:25:05 10° SSE daylight
28 Apr - 14:12:15 10° S 14:18:05 12° SSE 14:24:04 10° SE daylight
28 Apr - 16:21:25 10° SSW 16:38:21 34° SSE 16:52:27 10° E daylight
28 Apr - 18:36:21 10° SW 18:55:45 79° SE 19:08:01 10° ENE visible
28 Apr - 20:56:18 10° W 21:10:33 41° NW 21:19:09 10° NNE visible
28 Apr - 23:23:03 10° NW 23:24:46 11° NNW 23:26:20 10° NNW visible
29 Apr - 03:51:51 10° N 03:53:56 14° NNE 03:56:04 10° ENE visible
29 Apr - 06:01:36 10° WNW 06:05:20 45° SSW 06:10:39 10° SE daylight
29 Apr - 15:06:36 10° SSW 15:20:12 23° SSE 15:33:20 10° ESE daylight
29 Apr - 17:19:21 10° SW 17:38:43 56° SE 17:52:57 10° ENE daylight
29 Apr - 19:36:46 10° WSW 19:54:53 66° NW 20:05:48 10° NE visible
29 Apr - 22:00:08 10° WNW 22:09:19 22° NNW 22:15:38 10° NNE visible
30 Apr - 04:48:02 10° NW 04:51:37 59° NE 04:55:55 10° ESE visible
30 Apr - 07:01:01 10° WSW 07:03:44 15° SSW 07:07:04 10° S daylight
30 Apr - 13:53:53 10° S 14:01:37 14° SSE 14:09:44 10° SE daylight
30 Apr - 16:03:27 10° SSW 16:21:07 39° SE 16:36:24 10° E daylight
30 Apr - 18:18:30 10° SW 18:38:27 87° SE 18:51:42 10° ENE visible
30 Apr - 20:39:04 10° W 20:53:44 38° NW 21:02:54 10° NNE visible
30 Apr - 23:06:03 10° NW 23:08:42 11° NNW 23:11:03 10° N visible
01 May - 03:35:01 10° NNW 03:37:54 20° NNE 03:40:42 10° E visible
01 May - 05:45:59 10° W 05:49:20 29° SSW 05:53:38 10° SSE daylight
01 May - 14:48:46 10° SSW 15:03:11 26° SSE 15:17:34 10° E daylight
01 May - 17:01:29 10° SW 17:21:19 63° SE 17:36:35 10° ENE daylight
01 May - 19:19:13 10° WSW 19:37:42 60° NW 19:49:26 10° NE visible
01 May - 21:43:20 10° WNW 21:52:54 21° NNW 21:59:35 10° NNE visible
02 May - 04:31:54 10° NW 04:35:35 89° SW 04:39:38 10° SE visible
02 May - 13:35:55 10° S 13:44:59 15° SSE 13:54:46 10° ESE daylight
02 May - 15:45:41 10° SSW 16:03:43 45° SE 16:20:06 10° ENE daylight
02 May - 18:00:47 10° SW 18:21:02 85° NW 18:35:13 10° NE visible
02 May - 20:21:54 10° W 20:36:53 36° NNW 20:46:38 10° NNE visible
02 May - 22:48:54 10° NW 22:52:40 12° NNW 22:55:50 10° N visible
